www.pogodaiklimat.ru

Погода и климат >> Архив погоды >> Россия >> Чукотка >> Билибино


ПОГОДА в Билибино

  • Прогноз погоды в Билибино
  • Монитор погоды в Билибино

АРХИВ ПОГОДЫ в Билибино

Время (UTC), дата Ветер
(напр.,м/с)
 
Видим.   Явления Облачность Т
(С)
Тd
(С)
f
(%)
Тe
(С)
Тes
(С)
Комфортность P
(гПа)
Po
(гПа)
Тmin
(С)
Tmax
(С)
R
(мм)
R24
(мм)
S
(см)
12 17.03 СВ 1
{2}
20 км 3/0
[Ac lent Ci fib]
-38.7 -42.7 66 -44 -44 опасность
обморожения
1017.7 977.1
15 17.03 штиль 0
{2}
20 км 8/0
[Ac trans Cc]
-37.7 -41.8 65 -38 -38 опасность
обморожения
1016.4 976.0
18 17.03 штиль 0
{1}
20 км 10/0
[Ac und]
-34.0 -37.5 70 -34 -34 опасность
обморожения
1015.2 975.5
21 17.03 штиль 0
{2}
50 км 10/0
[Ac trans Cc]
-32.9 -36.4 71 -33 -32 опасность
обморожения
1013.8 974.3 -39.3 34
00 18.03 штиль 0
{2}
10 км слаб. снег 10/0
[Ac trans Cs]
-29.0 -34.3 60 -29 -27 1011.7 973.0
03 18.03 ЮВ 1
{2}
4000 м слаб. снег 10/0
[As op]
-25.9 -30.6 65 -30 -29 1009.7 971.5
06 18.03 С 1
{2}
2000 м снег 10/0
[As op]
-24.6 -28.5 70 -28 -28 1008.3 970.3
09 18.03 штиль 0
{2}
2000 м снег 10/0
[As op]
-24.5 -27.7 75 -25 -25 1007.8 970.0 -24.5 1
12 18.03 Ю 1
{3}
2000 м снег 10/0
[As op]
-24.1 -27.3 75 -28 -28 1007.5 969.7
15 18.03 штиль 0
{3}
2000 м снег 10/0
[As op]
-24.5 -27.7 75 -25 -25 1007.7 969.9
18 18.03 С 1
{3}
4000 м слаб. снег 10/0
[As op]
-24.4 -27.6 75 -28 -28 1008.7 970.8
21 18.03 С 1
{3}
4000 м слаб. снег 10/0
[As op]
-22.9 -26.9 70 -26 -26 1010.0 972.2 -24.8 1 35
00 19.03 ЮВ 1
{4}
10 км снежные кристаллы 10/0
[Ac trans Cs]
-20.4 -25.3 65 -23 -21 1010.6 973.3
03 19.03 ЮЗ 3
{6}
50 км {снег} 8/0
[Ac trans Ci fib]
-19.8 -26.5 55 -27 -26 1011.7 974.3
06 19.03 З 5
{8}
50 км {снег} 9/0
[Ac As Ci fib]
-21.0 -27.7 55 -31 -31 опасность
обморожения
1012.9 975.3
09 19.03 З 3
{9}
20 км 9/0
[Ac As]
-23.3 -28.9 60 -32 -32 опасность
обморожения
1014.9 976.9 -19.0 0.2
12 19.03 З 3
{8}
20 км 8/0
[Ac lent Ci fib]
-26.2 -31.7 60 -35 -35 опасность
обморожения
1016.6 978.1
15 19.03 З 5
{10}
20 км позёмок 8/0
[Ac lent Ci fib]
-28.4 -33.8 60 -41 -41 опасность
обморожения
1018.2 979.4
18 19.03 ЮЗ 4
{10}
10 км снежные кристаллы {метель} 10/0
[Cs]
-29.4 -34.7 60 -40 -40 опасность
обморожения
1019.7 980.6
21 19.03 З 1
{9}
10 км снежные кристаллы 10/0
[Ac trans Cs]
-29.3 -34.7 59 -33 -33 опасность
обморожения
1021.5 982.4 -29.9 0.0 35
00 20.03 ЮЗ 3
{8}
10 км снежные кристаллы 10/0
[Cs]
-27.1 -33.4 55 -36 -34 опасность
обморожения
1022.7 983.8
03 20.03 З 4
{7}
50 км {снег} 9/0
[Cs]
-24.7 -32.1 50 -35 -33 опасность
обморожения
1023.2 984.7
06 20.03 ЮЗ 1
{7}
50 км {снег} 10/0
[Ci ing]
-25.1 -31.5 55 -29 -29 1024.8 986.2
09 20.03 ЮЗ 1
{4}
20 км 10/3 600 м
[Sc Cs]
-29.1 -32.9 70 -33 -33 опасность
обморожения
1027.2 987.9 -24.5 0.0
12 20.03 штиль 0
{2}
20 км ясно -37.0 -40.4 70 -37 -37 опасность
обморожения
1030.3 989.5
15 20.03 штиль 0
{1}
20 км ясно -40.7 -44.5 67 -41 -41 опасность
обморожения
1032.0 990.5
18 20.03 штиль 0
{1}
50 км ясно -40.6 -44.5 66 -41 -41 опасность
обморожения
1032.4 990.9
21 20.03 СВ 4
{7}
50 км 3/0
[Ci fib]
-32.6 -36.9 65 -44 -44 опасность
обморожения
1031.3 991.2 -41.5 35
00 21.03 С 5
{8}
50 км 4/0
[Ci]
-27.1 -33.4 55 -39 -37 опасность
обморожения
1029.7 990.6
03 21.03 С 6
{10}
50 км позёмок 4/0
[Ac trans Ci fib]
-24.5 -32.0 50 -37 -36 опасность
обморожения
1027.8 989.0
06 21.03 С 5
{9}
50 км позёмок 9/0
[Ac trans Cs]
-24.9 -31.4 55 -36 -36 опасность
обморожения
1027.3 988.5
09 21.03 СВ 3
{9}
20 км {метель} 10/0
[Ac As]
-25.9 -31.4 60 -35 -35 опасность
обморожения
1027.4 988.5 -32.7
12 21.03 В 1
{5}
4000 м слаб. снег {метель} 10/0
[As op]
-26.3 -30.1 70 -30 -30 1027.6 988.7
15 21.03 штиль 0
{3}
10 км снежные кристаллы 10/0
[Ac trans Cs]
-32.7 -36.4 69 -33 -33 опасность
обморожения
1029.1 989.0
18 21.03 штиль 0
{1}
20 км {снег} ясно -37.6 -41.1 70 -38 -38 опасность
обморожения
1030.8 989.8
21 21.03 СВ 1
{3}
50 км ясно -29.6 -33.3 70 -34 -32 опасность
обморожения
1029.7 990.1 -37.7 0.4 35
00 22.03 СВ 2
{4}
50 км ясно -22.9 -29.5 55 -29 -26 1028.1 989.6
03 22.03 СВ 3
{5}
50 км ясно -20.3 -27.0 55 -28 -26 1027.2 989.2
06 22.03 С 4
{7}
50 км ясно -21.5 -27.2 60 -31 -31 опасность
обморожения
1027.0 988.9
09 22.03 СВ 3
{8}
20 км ясно -25.2 -29.1 70 -34 -34 опасность
обморожения
1027.7 988.9 -20.0
12 22.03 СВ 4
{7}
20 км ясно -26.9 -30.7 70 -37 -37 опасность
обморожения
1027.1 988.1
15 22.03 СВ 5
{8}
20 км ясно -27.5 -31.3 70 -39 -39 опасность
обморожения
1026.5 987.4
18 22.03 СВ 3
{9}
50 км ясно -27.6 -31.3 71 -37 -37 опасность
обморожения
1025.7 986.6
21 22.03 СВ 5
{9}
50 км ясно -25.9 -30.6 65 -37 -37 опасность
обморожения
1024.5 985.7 -28.1 35
00 23.03 СВ 6
{9}
50 км позёмок ясно -21.1 -26.8 60 -32 -31 опасность
обморожения
1021.9 984.0
03 23.03 СВ 5
{10}
50 км {метель} ясно -17.4 -25.3 50 -27 -25 1019.5 982.3
06 23.03 СВ 5
{9}
50 км {метель} ясно -18.5 -25.3 55 -28 -28 1018.5 981.1
09 23.03 СВ 4
{9}
20 км {метель} ясно -21.3 -27.0 60 -31 -31 опасность
обморожения
1018.3 980.5 -16.6
12 23.03 СВ 5
{9}
20 км {метель} ясно -22.2 -26.9 66 -33 -33 опасность
обморожения
1017.2 979.3
15 23.03 СВ 5
{9}
20 км ясно -22.0 -26.0 70 -33 -33 опасность
обморожения
1015.9 978.1
18 23.03 СВ 5
{8}
50 км ясно -23.2 -27.1 70 -34 -34 опасность
обморожения
1015.0 977.0
21 23.03 СВ 4
{10}
50 км {метель} ясно -22.1 -26.1 70 -32 -31 опасность
обморожения
1013.5 975.8 -23.6 35
00 24.03 СВ 5
{9}
50 км {метель} ясно -16.6 -23.5 55 -26 -24 1011.2 974.2
03 24.03 С 6
{9}
50 км позёмок ясно -11.8 -22.7 40 -21 -19 1009.2 973.0
06 24.03 С 3
{9}
50 км {метель} ясно -12.0 -20.3 50 -18 -18 1009.3 973.1
09 24.03 СВ 4
{11}
20 км {метель} 3/3 600 м
[Sc]
-14.0 -19.1 65 -22 -22 1009.4 972.9

 

Местоположение метеостанции Билибино (Чукотка, Россия): широта 68.05 долгота 166.40 высота над уровнем моря 280 м.

В архиве по умолчанию представлена погода в Билибино за последнюю неделю. Архивные данные за месяц целиком и за предыдущие месяцы, начиная с января 2011 года, Вы можете получить, выбрав интересующий диапазон дат из раскрывающегося списка и нажав кнопку "Ввод!".


*Определитесь, кто Вы:
робот инопланетянин человек

Внимание! Время в таблицах - всемирное. Для получения местного времени необходимо прибавить поправку, которая равна 12 ч.

Смотрите также архив погоды в соседних городах и на ближайших метеорологических станциях:

Погода в Островном (Чукотка, Россия) (96 км)
Погода в Илирнее (Чукотка, Россия) (109 км)
Погода в Раучуе (Чукотка, Россия) (161 км)
Погода в Баимке (Чукотка, Россия) (194 км)
Погода в Чауне (Чукотка, Россия) (198 км)
Погода в Анюйске (Чукотка, Россия) (205 км)
Погода на Айон Острове (Чукотка, Россия) (217 км)
Погода в Константиновской (Чукотка, Россия) (220 км)
Погода в Черском (Якутия, Россия) (222 км)
Погода в Певеке (Чукотка, Россия) (238 км)

Пояснения к столбцам:

Ветер - указаны скорость ветра в м/с - средняя за 10 мин, порывы в срок и между сроками (в фигурных скобках) и направление, откуда дует ветер: С - северный, СВ - северо-восточный, В - восточный, ЮВ - юго-восточный, Ю - южный, ЮЗ - юго-западный, З - западный, СЗ - северо-западный.
Видимость - горизонтальная дальность видимости в метрах или километрах. При видимости от 1 до 10 км при отсутствии осадков обычно наблюдается дымка, при ухудшении видимости до 1 км и менее - туман. В сухую погоду видимость может ухудшаться дымом, пылью или мглою.
Явления - указаны атмосферные явления, наблюдавшиеся в срок или в последний час перед сроком; фигурными скобками обозначены явления, наблюдавшиеся между сроками (за 1-3 часа до срока); квадратными скобками обозначены град или гололедные отложения с указанием их диаметра в мм.
Облачность - указаны через наклонную черту общая и нижняя облачность в баллах и высота нижней границы облаков в метрах; квадратными скобками обозначены формы облаков: Ci - перистые, Cs - перисто-слоистые, Cc - перисто-кучевые, Ac - высококучевые, As - высокослоистые, Sc - слоисто-кучевые, Ns - слоисто-дождевые, Cu - кучевые, Cb - кучево-дождевые. Подробнее классификацию облаков см. в Атласе облаков (PDF).
T - Температура воздуха - температура, измеренная на высоте 2 м над землей.
Td - Температура точки росы - температура, при понижении до которой содержащийся в воздухе водяной пар достигнет насыщения.
f - Относительная влажность воздуха - влажноcть воздуха, измеренная на высоте 2 м над землей.
Te - Эффективная температура - температура, которую ощущает одетый по сезону человек в тени. Характеристика душности погоды. При расчете учитывается влияние влажности воздуха и скорости ветра на теплоощущения человека.
Tes - Эффективная температура на солнце - температура, которую ощущает человек, с поправкой на солнечный нагрев. Характеристика знойности погоды. Зависит от высоты солнца над горизонтом, облачности и скорости ветра. Ночью, в пасмурную погоду, а также при ветре 12 м/с и более поправка равна нулю.
P - Атмосферное давление - приведенное к уровню моря атмосферное давление.
Po - Атмосферное давление - измеренное на уровне метеостанции атмосферное давление.
Tmin - Минимальная температура - минимум температуры воздуха на высоте 2 м над землей.
Tmax - Максимальная температура - максимум температуры воздуха на высоте 2 м над землей.
R - Количество осадков - Количество выпавших осадков за период времени, мм. При наведении курсора мыши на число - период времени, за который выпало указанное количество осадков.
R24 - Количество осадков - Количество выпавших осадков за 24 часа, мм.
S - Снежный покров - Высота снежного покрова, см. При наведении курсора мыши на число - состояние снежного покрова и степень покрытия местности в баллах.